Location: Tamazert
(32.6352°N, 5.2072°W)
Time: 04:58:56
(UTC+00:00)

Vanguard 2 - Pass Details

Date: 03 October 2022
Orbit: 553 x 2933 km, 32.9° (Epoch: 26 November)

Event Time Altitude Azimuth Distance (km) Brightness Sun altitude
Rises 12:49:47 0° 243° (WSW) 4,394 11.8 52.1°
Reaches altitude 10° 12:52:16 10° 241° (WSW) 3,679 11.6 51.9°
Maximum altitude 13:02:25 73° 158° (SSE) 2,208 11.2 51.2°
Drops below altitude 10° 13:18:35 10° 78° (ENE) 5,587 11.8 49.8°
Sets 13:23:19 0° 77° (ENE) 6,734 12.1 49.4°
